CZ-2D DEB, 44612

Orbit data source: Space-Track

CZ-2D DEB, 44612 is space debris in SSO originally from a launch on Mon, 09 Oct 2017 UTC launched from the Jiuquan Satellite Launch Center, China (JSC). Debris objects in space refer to the collection of defunct objects orbiting the Earth. Examples of debris include non-operational satellites, rocket bodies, and fragments generated from explosions, collisions, or faulty payload assembly.

Loading next visibility...
Identifier
44612, 2017-060E
Orbit
SSO
Country
Flag of CNCN / PRC
Related business
Manufacturer
Unknown
Mission
Spacecraft
Bus & Motor
Unknown
Mass
Unknown
Launch date (UTC)
2017-10-09 (8 years ago)
Launch vehicle
Unknown
Launch site
Jiuquan Satellite Launch Center, China (JSC)
Object type
Payload
Rocket body
Debris
Shape & HBR
Unknown shape, 0.1 m
Radar Cross Section
Small (<0.1 m²)

Expand to show TLE details & history
Last TLE update: 20 hours ago

TLE from 20 hours ago
0 CZ-2D DEB
1 44612U 17060E   26036.95609910  .00007791  00000-0  74817-3 0  9991
2 44612  97.5917  45.2536 0011044 164.3611 195.7952 14.93280568447294
Epoch: 2026-02-05T22:56Z
TLE epoch observation values (Epoch: 2026-02-05T22:56:46.962Z)
Latitude
-0.00004°
Longitude
-75.04296°
Altitude
598.168 km
Speed
7.557 km/s
True Right ascension
03h 01m 00s
True Declination
0° 00' 00"
Sunlit
Object was in daylight at epoch
Visualization orbit readout
Latitude
Unknown
Longitude
Unknown
Altitude
Unknown
Speed
Unknown
Apparent Right ascension
Unknown
Apparent Declination
Unknown
Sunlit
N/A
Visualization observer readout
Local Sidereal Time
21:02:35
Azimuth
Unknown
Elevation
Unknown
Doppler factor
Unknown
Orbital elements
Apogee altitude
592.414 km
Perigee altitude
577.035 km
Semi-major axis
6,962.861 km
Eccentricity
0.0011
Inclination
97.5917°
RAAN
45.2536°
Arg. of periapsis
164.3611°
True anomaly
195.7608°
Mean anomaly
195.7952°
Eccentric anomaly
195.77799°
Mean motion
3.73561 °/min
Orbital period
96.37 mins
BSTAR
0.00074817
Loading maneuver chart data...
Computing Atmospheric mass density...
Loading historical data...
Loading historical data...
Loading historical data...
Loading historical data...
Loading historical data...
Loading historical data...
Loading historical data...
Other satellites on launch #60 in the year 2017 (2017-10-09 UTC)

Documentation

Showing up to 5 results
|